GW6651 Weather Reports


Display with metric or nautical units.
time (UTC)temp
F
wind
direction
speed
MPH
gust
MPH
rain 1hr
in
rain 24hr
in
rain mn
in
humidity
%
barometer
mb
20260906112017 71 221 0.0 0.0 0.00 0.38 0.00 93 1013.6
20260906111533 72 221 0.0 0.0 0.00 0.38 0.00 93 1013.5
20260906111018 72 221 0.0 0.0 0.00 0.38 0.00 93 1013.4
20260906110517 72 221 0.0 2.0 0.00 0.38 0.00 93 1013.5
20260906110031 72 221 0.0 2.0 0.00 0.38 0.00 93 1013.5
20260906105510 72 256 0.0 2.0 0.00 0.38 0.00 93 1013.3
20260906105010 72 256 0.0 2.0 0.00 0.38 0.00 92 1013.3
20260906104527 72 256 0.0 2.0 0.00 0.38 0.00 93 1013.3
20260906104012 72 256 0.0 2.0 0.00 0.38 0.00 92 1013.2
20260906103512 73 250 0.0 2.0 0.00 0.38 0.00 92 1013.2
20260906103042 72 258 1.0 3.0 0.00 0.38 0.00 92 1013.0
20260906102516 72 231 2.0 5.0 0.00 0.38 0.00 93 1013.0
20260906102015 72 252 2.0 5.0 0.00 0.38 0.00 93 1013.0
20260906101533 72 240 2.0 3.0 0.00 0.38 0.00 93 1013.1
20260906101019 72 251 1.0 3.0 0.00 0.38 0.00 94 1013.1
20260906100518 72 211 1.0 3.0 0.00 0.38 0.00 94 1013.1
20260906100035 72 247 1.0 2.0 0.00 0.38 0.00 94 1013.2
20260906095518 72 242 0.0 2.0 0.00 0.38 0.00 94 1013.2
20260906095009 72 242 0.0 4.0 0.00 0.38 0.00 94 1013.2
20260906094532 72 254 1.0 4.0 0.00 0.38 0.00 94 1013.1
20260906094011 72 233 3.0 4.0 0.00 0.38 0.00 94 1013.2
20260906093505 72 78 0.0 2.0 0.00 0.38 0.00 95 1013.3
20260906093004 72 112 1.0 2.0 0.00 0.38 0.00 95 1013.3
20260906092504 72 150 0.0 3.0 0.00 0.38 0.00 94 1012.9
20260906092005 72 165 1.0 3.0 0.00 0.38 0.00 94 1012.9
20260906091510 72 167 1.0 2.0 0.00 0.38 0.00 94 1013.0
20260906091003 72 218 1.0 2.0 0.00 0.38 0.00 94 1013.1
20260906090504 72 252 0.0 0.0 0.00 0.38 0.00 94 1013.2
20260906090012 72 252 0.0 2.0 0.00 0.38 0.00 94 1013.3
20260906085507 72 252 0.0 2.0 0.00 0.38 0.00 94 1013.4
20260906085009 72 265 0.0 1.0 0.00 0.38 0.00 94 1013.5
20260906084523 72 8 0.0 0.0 0.00 0.38 0.00 94 1013.5
20260906084014 72 8 0.0 0.0 0.00 0.38 0.00 94 1013.5
20260906083512 72 8 0.0 0.0 0.00 0.38 0.00 94 1013.6
20260906083034 72 8 0.0 2.0 0.00 0.38 0.00 94 1013.6
20260906082508 72 8 0.0 2.0 0.00 0.38 0.00 94 1013.7
20260906082003 72 8 0.0 2.0 0.00 0.38 0.00 94 1013.7
20260906081513 72 8 0.0 2.0 0.00 0.38 0.00 94 1013.7
20260906081004 72 8 0.0 2.0 0.00 0.38 0.00 94 1013.7
20260906080504 73 8 0.0 2.0 0.00 0.38 0.00 94 1013.7
20260906080029 73 8 0.0 2.0 0.00 0.38 0.00 94 1013.6
20260906075504 73 8 0.0 2.0 0.00 0.38 0.00 94 1013.4
20260906075007 73 8 0.0 1.0 0.00 0.38 0.00 95 1013.3
20260906074518 73 8 0.0 2.0 0.00 0.38 0.00 95 1013.3
20260906074007 73 8 0.0 2.0 0.00 0.38 0.00 95 1013.4
20260906073512 73 73 0.0 2.0 0.00 0.38 0.00 95 1013.3
20260906073026 73 339 0.0 2.0 0.00 0.38 0.00 95 1013.4
20260906072515 72 329 1.0 2.0 0.00 0.38 0.00 94 1013.3
20260906072013 72 270 0.0 2.0 0.00 0.38 0.00 94 1012.8
20260906071529 72 215 0.0 2.0 0.00 0.38 0.00 94 1012.8
20260906071003 72 215 0.0 2.0 0.00 0.38 0.00 94 1012.7
20260906070503 72 215 0.0 2.0 0.00 0.38 0.00 94 1012.7
20260906070008 72 215 0.0 2.0 0.00 0.38 0.00 94 1012.7
20260906065508 73 215 0.0 2.0 0.00 0.38 0.00 94 1012.8
20260906065004 72 215 0.0 2.0 0.00 0.38 0.00 95 1013.0
20260906064519 72 215 0.0 2.0 0.00 0.38 0.00 95 1013.2
20260906064008 72 215 0.0 1.0 0.00 0.38 0.00 95 1013.4
20260906063512 72 219 0.0 2.0 0.00 0.38 0.00 95 1013.4
20260906063027 72 211 0.0 2.0 0.00 0.38 0.00 95 1013.4
20260906062512 72 198 0.0 2.0 0.00 0.38 0.00 95 1013.3
20260906062013 72 278 0.0 2.0 0.00 0.38 0.00 95 1013.3
20260906061532 72 278 0.0 2.0 0.00 0.38 0.00 95 1013.3
20260906061013 72 278 1.0 1.0 0.00 0.38 0.00 95 1013.3
20260906060516 71 1 0.0 0.0 0.00 0.38 0.00 95 1013.2
20260906060008 71 1 0.0 0.0 0.00 0.38 0.00 95 1013.3
20260906055503 71 41 0.0 1.0 0.00 0.38 0.00 94 1013.3
20260906055004 71 31 0.0 1.0 0.00 0.38 0.00 95 1013.4
20260906054532 72 31 0.0 1.0 0.00 0.38 0.00 95 1013.5
20260906054003 71 131 0.0 0.0 0.00 0.38 0.00 95 1013.6
20260906053511 71 131 0.0 0.0 0.00 0.38 0.00 95 1013.6
20260906053024 71 131 0.0 0.0 0.00 0.38 0.00 95 1013.6
20260906052507 71 131 0.0 0.0 0.00 0.38 0.00 95 1013.6
20260906052015 72 131 0.0 0.0 0.00 0.38 0.00 95 1013.6
20260906051531 72 131 0.0 0.0 0.00 0.38 0.00 95 1013.6
20260906051015 71 131 0.0 0.0 0.00 0.38 0.00 95 1013.7
20260906050524 71 131 0.0 0.0 0.00 0.38 0.00 95 1013.7
20260906050034 71 131 0.0 1.0 0.00 0.38 0.00 94 1013.6
20260906045514 71 131 0.0 1.0 0.00 0.38 0.00 94 1013.8
20260906045003 72 120 0.0 0.0 0.00 0.38 0.00 94 1013.9
20260906044510 72 120 0.0 0.0 0.00 0.38 0.00 94 1013.9
20260906044007 72 120 0.0 0.0 0.00 0.38 0.00 95 1013.9
20260906043506 72 120 0.0 0.0 0.00 0.38 0.00 94 1014.0
20260906043023 72 120 0.0 0.0 0.00 0.38 0.00 94 1014.1
20260906042509 72 120 0.0 0.0 0.00 0.38 0.00 95 1014.0
20260906042014 72 120 0.0 2.0 0.00 0.38 0.00 95 1013.8
20260906041527 72 120 0.0 2.0 0.00 0.38 0.00 94 1013.8
20260906041022 72 120 0.0 2.0 0.00 0.38 0.00 94 1013.8
20260906040511 72 98 0.0 0.0 0.00 0.38 0.00 94 1013.8
20260906040031 72 95 0.0 0.0 0.00 0.38 0.00 94 1013.8
20260906035515 72 95 0.0 0.0 0.00 0.38 0.38 94 1013.8
20260906035014 72 156 0.0 0.0 0.00 0.38 0.38 94 1013.8
20260906034534 72 156 0.0 0.0 0.00 0.38 0.38 94 1013.8
20260906034007 72 156 0.0 0.0 0.00 0.38 0.38 94 1013.8
20260906033503 72 156 0.0 2.0 0.00 0.38 0.38 94 1013.7
20260906033015 72 122 0.0 2.0 0.00 0.38 0.38 94 1013.9
20260906032509 72 122 0.0 2.0 0.00 0.38 0.38 94 1014.0
20260906032009 72 122 0.0 2.0 0.00 0.38 0.38 93 1014.0
20260906031524 72 76 0.0 0.0 0.00 0.38 0.38 94 1013.9
20260906031013 72 76 0.0 0.0 0.00 0.38 0.38 94 1013.9
20260906030512 72 76 0.0 0.0 0.00 0.38 0.38 94 1013.9
20260906030027 72 76 0.0 0.0 0.00 0.38 0.38 94 1013.8
20260906025513 72 76 0.0 0.0 0.00 0.38 0.38 94 1013.8
20260906025015 72 76 0.0 0.0 0.00 0.38 0.38 94 1013.7
20260906024533 72 76 0.0 0.0 0.00 0.38 0.38 94 1013.6
20260906024015 72 76 0.0 0.0 0.00 0.38 0.38 94 1013.6
20260906023519 72 76 0.0 0.0 0.00 0.38 0.38 94 1013.5
20260906023011 72 76 0.0 0.0 0.00 0.38 0.38 94 1013.5
20260906022508 73 76 0.0 0.0 0.00 0.38 0.38 94 1013.5
20260906022008 73 155 0.0 0.0 0.00 0.38 0.38 94 1013.5
20260906021535 72 155 0.0 2.0 0.00 0.38 0.38 93 1013.6
20260906021016 72 155 0.0 2.0 0.00 0.38 0.38 93 1013.3
20260906020522 73 155 0.0 0.0 0.00 0.38 0.38 93 1013.3
20260906020032 73 155 0.0 0.0 0.00 0.38 0.38 94 1013.1
20260906015511 73 155 0.0 0.0 0.00 0.38 0.38 94 1013.2
20260906015014 73 155 0.0 0.0 0.00 0.38 0.38 94 1013.0
20260906014532 73 155 0.0 0.0 0.00 0.38 0.38 94 1012.8
20260906014017 73 155 0.0 1.0 0.00 0.38 0.38 94 1012.9
20260906013515 73 155 0.0 1.0 0.00 0.38 0.38 93 1012.9
20260906013040 73 155 0.0 1.0 0.00 0.38 0.38 93 1012.8
20260906012519 74 155 0.0 0.0 0.00 0.38 0.38 93 1012.7
20260906012019 74 155 0.0 0.0 0.00 0.38 0.38 93 1012.7
20260906011519 74 155 0.0 0.0 0.00 0.38 0.38 93 1012.7
20260906011009 74 155 0.0 0.0 0.00 0.38 0.38 93 1012.7
20260906010508 74 155 0.0 0.0 0.00 0.38 0.38 93 1012.8
20260906010026 74 155 0.0 0.0 0.00 0.38 0.38 93 1012.6
20260906005509 74 155 0.0 0.0 0.00 0.38 0.38 93 1012.7
20260906005015 74 155 0.0 0.0 0.00 0.38 0.38 93 1012.5
20260906004536 74 155 0.0 0.0 0.00 0.38 0.38 93 1012.6
20260906004016 74 155 0.0 0.0 0.00 0.38 0.38 92 1012.7
20260906003514 74 99 0.0 0.0 0.00 0.38 0.38 92 1012.7
20260906003033 75 99 0.0 0.0 0.00 0.38 0.38 92 1012.8
20260906002514 75 99 0.0 0.0 0.00 0.38 0.38 92 1012.9
20260906002020 75 99 0.0 0.0 0.00 0.38 0.38 92 1012.8
20260906001535 75 99 0.0 0.0 0.00 0.38 0.38 92 1012.7
20260906001017 75 99 0.0 0.0 0.00 0.38 0.38 92 1012.7
20260906000511 76 99 0.0 0.0 0.00 0.38 0.38 92 1012.7
20260906000022 76 99 0.0 0.0 0.00 0.38 0.38 92 1012.9
20260905235510 76 99 0.0 0.0 0.00 0.38 0.38 92 1012.8
20260905235013 76 99 0.0 0.0 0.00 0.38 0.38 92 1012.8
20260905234526 76 99 0.0 0.0 0.00 0.38 0.38 91 1012.8
20260905234014 76 99 0.0 0.0 0.00 0.38 0.38 91 1012.7
20260905233517 76 67 0.0 0.0 0.00 0.38 0.38 91 1012.8
20260905233034 77 27 0.0 0.0 0.00 0.38 0.38 92 1012.9
20260905232519 77 27 0.0 0.0 0.00 0.38 0.38 92 1012.7
20260905232017 77 27 0.0 0.0 0.00 0.38 0.38 93 1012.7
20260905231532 77 27 0.0 0.0 0.00 0.38 0.38 92 1012.5
20260905231016 77 27 0.0 1.0 0.00 0.38 0.38 92 1012.3
20260905230515 77 27 0.0 2.0 0.00 0.38 0.38 92 1012.3
20260905230036 77 27 0.0 2.0 0.00 0.38 0.38 92 1012.4
20260905225509 77 27 0.0 0.0 0.00 0.38 0.38 92 1012.4
20260905225012 78 27 0.0 0.0 0.00 0.38 0.38 92 1012.3
20260905224533 78 27 0.0 0.0 0.00 0.38 0.38 92 1012.3
20260905224012 78 27 0.0 0.0 0.00 0.38 0.38 92 1012.4
20260905223519 77 27 0.0 0.0 0.00 0.38 0.38 91 1012.4
20260905223033 78 27 0.0 0.0 0.00 0.38 0.38 92 1012.4
20260905222514 78 27 0.0 0.0 0.00 0.38 0.38 92 1012.7
20260905222018 78 27 0.0 0.0 0.00 0.38 0.38 91 1012.9
20260905221530 77 27 0.0 0.0 0.00 0.38 0.38 90 1012.9
20260905221022 78 27 0.0 0.0 0.00 0.38 0.38 90 1012.8
20260905220517 78 27 0.0 0.0 0.00 0.38 0.38 89 1012.7
20260905220105 78 27 0.0 0.0 0.00 0.38 0.38 90 1012.7
20260905215515 78 27 0.0 0.0 0.00 0.38 0.38 91 1012.7
20260905215023 78 27 0.0 0.0 0.00 0.38 0.38 92 1013.0
20260905214010 78 27 0.0 0.0 0.00 0.38 0.38 90 1013.4
20260905213516 78 27 0.0 2.0 0.00 0.38 0.38 91 1013.4
20260905213030 78 27 0.0 2.0 0.00 0.38 0.38 92 1013.3
20260905212512 77 27 0.0 2.0 0.00 0.38 0.38 92 1013.3
20260905212017 77 86 0.0 2.0 0.00 0.38 0.38 90 1013.2
20260905211541 77 162 0.0 2.0 0.00 0.38 0.38 92 1013.2
20260905211017 77 162 0.0 2.0 0.00 0.38 0.38 93 1013.2
20260905210515 76 162 0.0 0.0 0.00 0.38 0.38 93 1013.3
20260905210036 76 162 0.0 0.0 0.02 0.38 0.38 92 1013.3
20260905205520 76 162 0.0 2.0 0.22 0.38 0.38 91 1013.1
20260905205021 75 162 0.0 2.0 0.32 0.38 0.38 90 1013.0
20260905204535 75 162 0.0 2.0 0.38 0.38 0.38 92 1013.2
20260905203511 75 338 0.0 2.0 0.38 0.38 0.38 93 1013.4
20260905203031 74 338 0.0 2.0 0.38 0.38 0.38 90 1013.5
20260905202513 74 338 0.0 2.0 0.38 0.38 0.38 90 1013.6
20260905202013 74 306 0.0 4.0 0.38 0.38 0.38 89 1013.9
20260905201534 75 167 1.0 4.0 0.38 0.38 0.38 88 1013.6
20260905201010 75 284 0.0 7.0 0.38 0.38 0.38 86 1013.4
20260905200520 76 359 1.0 7.0 0.38 0.38 0.38 84 1013.6
20260905200034 79 142 2.0 7.0 0.36 0.36 0.36 76 1014.3
20260905194541 94 257 3.0 6.0 0.00 0.00 0.00 53 1014.2
20260905194022 96 352 2.0 4.0 0.00 0.00 0.00 48 1013.6
20260905193517 96 357 0.0 2.0 0.00 0.00 0.00 48 1013.1
20260905192519 96 74 0.0 2.0 0.00 0.00 0.00 48 1012.9
20260905192018 95 316 0.0 3.0 0.00 0.00 0.00 49 1013.2
20260905191540 95 333 1.0 3.0 0.00 0.00 0.00 50 1013.1
20260905191004 95 27 1.0 2.0 0.00 0.00 0.00 48 1012.9
20260905190504 95 7 0.0 2.0 0.00 0.00 0.00 51 1013.1
20260905190049 94 229 0.0 3.0 0.00 0.00 0.00 50 1013.3
20260905185508 94 359 1.0 3.0 0.00 0.00 0.00 51 1013.5
20260905185035 93 347 1.0 3.0 0.00 0.00 0.00 54 1013.6
20260905184548 93 323 0.0 2.0 0.00 0.00 0.00 52 1013.7
20260905184007 93 83 0.0 3.0 0.00 0.00 0.00 57 1013.5
20260905183510 93 341 0.0 3.0 0.00 0.00 0.00 56 1013.3
20260905183023 93 281 0.0 2.0 0.00 0.00 0.00 55 1013.2
20260905182510 93 325 1.0 4.0 0.00 0.00 0.00 55 1013.4
20260905182014 93 184 0.0 4.0 0.00 0.00 0.00 53 1013.4
20260905181547 94 293 0.0 3.0 0.00 0.00 0.00 53 1013.6
20260905181014 94 217 1.0 5.0 0.00 0.00 0.00 52 1013.7
20260905180520 94 120 2.0 5.0 0.00 0.00 0.00 54 1013.7
20260905180031 94 150 1.0 4.0 0.00 0.00 0.00 55 1013.8
20260905175504 94 121 2.0 4.0 0.00 0.00 0.00 55 1014.0
20260905175024 94 184 1.0 2.0 0.00 0.00 0.00 55 1014.1
20260905174526 94 98 0.0 3.0 0.00 0.00 0.00 54 1014.2
20260905173507 93 1 0.0 3.0 0.00 0.00 0.00 55 1014.1
20260905173019 93 323 1.0 4.0 0.00 0.00 0.00 57 1014.2
20260905172510 93 169 1.0 6.0 0.00 0.00 0.00 60 1014.1
20260905172011 93 168 3.0 6.0 0.00 0.00 0.00 58 1014.2
20260905165515 91 91 1.0 2.0 0.00 0.00 0.00 60 1014.4
20260905165014 91 29 1.0 2.0 0.00 0.00 0.00 62 1014.5
20260905164509 91 359 0.0 3.0 0.00 0.00 0.00 64 1014.6
20260905164006 90 94 2.0 3.0 0.00 0.00 0.00 63 1014.7
20260905163505 90 119 1.0 2.0 0.00 0.00 0.00 62 1014.8
20260905162510 90 60 1.0 3.0 0.00 0.00 0.00 64 1014.9
20260905162010 89 101 1.0 3.0 0.00 0.00 0.00 64 1015.0
20260905161530 89 118 1.0 3.0 0.00 0.00 0.00 64 1015.0
20260905161010 89 80 1.0 2.0 0.00 0.00 0.00 65 1015.0
20260905160513 89 306 1.0 2.0 0.00 0.00 0.00 65 1015.0
20260905160032 89 13 0.0 4.0 0.00 0.00 0.00 67 1015.1
20260905155519 89 158 1.0 4.0 0.00 0.00 0.00 67 1015.2
20260905155015 88 170 0.0 3.0 0.00 0.00 0.00 68 1015.1
20260905154535 88 112 0.0 3.0 0.00 0.00 0.00 67 1015.1
20260905154015 88 101 0.0 3.0 0.00 0.00 0.00 68 1015.1
20260905153506 87 167 2.0 3.0 0.00 0.00 0.00 69 1015.1
20260905153016 87 152 1.0 3.0 0.00 0.00 0.00 71 1015.2
20260905152508 87 232 0.0 3.0 0.00 0.00 0.00 69 1015.3
20260905152008 87 153 1.0 2.0 0.00 0.00 0.00 70 1015.3
20260905151534 86 216 0.0 2.0 0.00 0.00 0.00 70 1015.3
20260905151018 86 229 1.0 2.0 0.00 0.00 0.00 70 1015.5
20260905150513 86 210 1.0 2.0 0.00 0.00 0.00 70 1015.4
20260905145513 85 345 0.0 2.0 0.00 0.00 0.00 71 1015.5
20260905145014 85 61 0.0 2.0 0.00 0.00 0.00 71 1015.6
20260905144534 85 36 0.0 2.0 0.00 0.00 0.00 73 1015.5
20260905144016 85 37 0.0 2.0 0.00 0.00 0.00 72 1015.5
20260905143517 84 31 0.0 2.0 0.00 0.00 0.00 73 1015.5
20260905143008 84 40 0.0 2.0 0.00 0.00 0.00 73 1015.6
20260905142503 83 142 0.0 0.0 0.00 0.00 0.00 76 1015.5
20260905142009 83 165 0.0 2.0 0.00 0.00 0.00 76 1015.5
20260905141509 83 165 0.0 2.0 0.00 0.00 0.00 76 1015.8
20260905141006 82 165 0.0 2.0 0.00 0.00 0.00 78 1015.7
20260905140504 82 154 1.0 3.0 0.00 0.00 0.00 78 1015.7
20260905140008 81 161 2.0 3.0 0.00 0.00 0.00 77 1015.8
20260905135502 81 203 1.0 3.0 0.00 0.00 0.00 80 1016.0
20260905135010 80 163 2.0 3.0 0.00 0.00 0.00 80 1016.0
20260905134527 80 167 0.0 2.0 0.00 0.00 0.00 82 1016.0
20260905134005 80 167 1.0 2.0 0.00 0.00 0.00 82 1016.0
20260905133503 79 182 0.0 2.0 0.00 0.00 0.00 84 1016.1
20260905133012 79 169 0.0 2.0 0.00 0.00 0.00 84 1016.2
20260905132504 78 172 0.0 2.0 0.00 0.00 0.00 84 1016.0
20260905132005 78 166 2.0 2.0 0.00 0.00 0.00 85 1016.1
20260905131513 77 205 0.0 0.0 0.00 0.00 0.00 88 1016.3
20260905131003 76 253 0.0 0.0 0.00 0.00 0.00 91 1016.3
20260905130506 76 260 0.0 0.0 0.00 0.00 0.00 92 1016.3
20260905130009 76 260 0.0 0.0 0.00 0.00 0.00 93 1016.1
20260905125504 75 260 0.0 2.0 0.00 0.00 0.00 93 1016.1
20260905125006 75 260 0.0 2.0 0.00 0.00 0.00 94 1016.1
20260905124521 75 266 0.0 0.0 0.00 0.00 0.00 94 1016.0
20260905124003 74 266 0.0 0.0 0.00 0.00 0.00 94 1015.9
20260905123503 74 266 0.0 0.0 0.00 0.00 0.00 94 1016.0
20260905123009 74 266 0.0 0.0 0.00 0.00 0.00 94 1016.1
20260905122503 73 266 0.0 0.0 0.00 0.00 0.00 94 1016.0
20260905122008 73 266 0.0 0.0 0.00 0.00 0.00 94 1015.8
20260905121510 73 266 0.0 0.0 0.00 0.00 0.00 94 1015.8
20260905121004 73 266 0.0 0.0 0.00 0.00 0.00 94 1015.8
20260905120504 73 266 0.0 0.0 0.00 0.00 0.00 93 1015.9
20260905120018 73 266 0.0 0.0 0.00 0.00 0.00 93 1016.0
20260905115504 73 266 0.0 0.0 0.00 0.00 0.00 93 1015.9
20260905115004 73 266 0.0 0.0 0.00 0.00 0.00 93 1015.9
20260905114513 73 266 0.0 0.0 0.00 0.00 0.00 93 1015.8
20260905114004 73 266 0.0 0.0 0.00 0.00 0.00 94 1015.8
20260905113506 73 266 0.0 0.0 0.00 0.00 0.00 94 1015.6
20260905113014 73 266 0.0 0.0 0.00 0.00 0.00 93 1015.5
20260905112504 73 266 0.0 0.0 0.00 0.00 0.00 93 1015.3